Regional Weather Roundup
Issued by NWS

Home | Current Version | Previous Version | Text Only | Print | Product List | Glossary On
Versions: 1 2 3 4 5 6 7 8 9 10 11 12 13 14 15 16 17 18 19 20 21 22 23 24 25 26 27 28 29 30 31 32 33 34 35 36 37 38 39 40 41 42 43 44 45 46 47 48 49 50
000
ASUS43 KDTX 170701
RWRMI
MICHIGAN HOURLY REGIONAL WEATHER ROUNDUP
NATIONAL WEATHER SERVICE DETROIT/PONTIAC MI
300 AM EDT THU AUG 17 2017

NOTE: "FAIR" INDICATES FEW OR NO CLOUDS BELOW 12,000 FEET WITH NO
SIGNIFICANT WEATHER AND/OR OBSTRUCTION TO VISIBILITY.

MIZ047>049-052>055-059>063-066>070-074>076-081>083-170800-
SOUTHEAST LOWER MICHIGAN

CITY           SKY/WX    TMP DP  RH WIND       PRES   REMARKS
ADRIAN         CLOUDY    70  37  29 E5        29.93F
ALMA           MOCLDY    70  58  66 SE7       29.91F
ANN ARBOR      CLOUDY    71  62  73 E6        29.94F
BAD AXE        CLOUDY    68  60  74 SE5       29.98F
CARO           CLOUDY    68  56  66 SE8       29.95F
DETROIT CITY   PTCLDY    72  61  68 SE9       29.96F
DETROIT        MOCLDY    71  61  70 E6        29.95F
FLINT          CLOUDY    70  56  61 SE10      29.94F
GROSSE ILE     PTCLDY    75  62  64 SE8       29.94F
HILLSDALE      CLOUDY    68  59  73 SE7       29.92F
HOWELL         CLOUDY    71  57  60 SE12      29.94F

CITY           SKY/WX    TMP DP  RH WIND       PRES   REMARKS
JACKSON        MOCLDY    72  61  68 E8        29.92F
LAMBERTVILLE   PTCLDY    72  62  69 SE5       29.93F
LANSING        CLOUDY    71  59  65 SE15      29.91F
LAPEER         MOCLDY    67  60  77 SE3       29.97F
MASON          CLOUDY    72  61  68 SE10G17   29.92F
MONROE         CLOUDY    75  65  72 SE7       29.93F
MT. CLEMENS    CLOUDY    71  65  81 E7        29.96F
PONTIAC        PTCLDY    70  59  68 SE7       29.95F
PORT HOPE        N/A     69  64  84 SE7       29.96F
PORT HURON     CLOUDY    68  63  83 SE6       29.98F
TRI CITIES     CLOUDY    70  61  73 SE9       29.93F
MIDLAND        MOCLDY    69  60  71 E5        29.92F
TROY           PTCLDY    72  58  61 E3        29.98F
SAGINAW HB     CLOUDY    68  59  73 SE5       29.93F
$$
MIZ043>046-050>051-056>058-064>065-071>073-077>080-170800-
SOUTHWEST LOWER MICHIGAN

CITY           SKY/WX    TMP DP  RH WIND       PRES   REMARKS
BIG RAPIDS     LGT RAIN  69  62  78 SE7       29.89F
COLDWATER      CLOUDY    72  63  73 SE13      29.90F
FREMONT        CLOUDY    70  70  99 E8        29.84F
IONIA          CLOUDY    71  60  67 SE10      29.89F
LUDINGTON      LGT RAIN  69  67  92 E10       29.80F
MARSHALL       CLOUDY    72  61  68 SE8       29.90F
MOUNT PLEASANT CLOUDY    69  61  75 E6        29.90F
SOUTH HAVEN    MOCLDY    74  71  90 SE7       29.83F
$$
MIZ016>042-170800-
NORTHERN LOWER MICHIGAN

CITY           SKY/WX    TMP DP  RH WIND       PRES   REMARKS
ALPENA         CLOUDY    66  63  90 SE8       29.97F
BEAVER ISLAND  CLOUDY    69  61  75 SE9       29.88F
BELLAIRE       MOCLDY    71  58  63 SE10G22   29.87F
CADILLAC       CLOUDY    71  60  70 SE9       29.90F
CHARLEVOIX     CLOUDY    70  58  67 SE10      29.91F
FRANKFORT      LGT RAIN  73  66  80 SE8       29.83F
GAYLORD        CLOUDY    64  55  72 SE12      29.94F
GRAYLING       CLOUDY    65  58  76 E7        29.94F
HARBOR SPRINGS CLOUDY    66  57  72 E10       29.91F
HOUGHTON LAKE  CLOUDY    67  59  75 SE10      29.93F
OSCODA         CLOUDY    69  63  80 S6        29.96F
PELLSTON       CLOUDY    66  59  78 SE10      29.92F
ROGERS CITY    MOCLDY    64  60  88 SE5       29.97F
TRAVERSE CITY  CLOUDY    72  60  66 SE9G20    29.84F
$$
MIZ007>008-015-170800-
EASTERN UPPER MICHIGAN

CITY           SKY/WX    TMP DP  RH WIND       PRES   REMARKS
MACKINAC ISLAN MOCLDY    65  64  94 E13G21    29.92F
NEWBERRY       CLOUDY    62  61  97 E10       29.90F
S. S. MARIE    PTCLDY    63  59  87 E3        29.95F
MUNISING         N/A     66  64  93 S8        29.83F
$$
MIZ004>006-011>014-085-170800-
CENTRAL UPPER MICHIGAN

CITY           SKY/WX    TMP DP  RH WIND       PRES   REMARKS
MANISTIQUE     CLOUDY    67  61  81 E10G17    29.86F
SAWYER-GWINN   MOCLDY    63  61  93 SE7       29.84F
$$
MIZ001>003-009>011-084-170800-
WESTERN UPPER MICHIGAN

CITY           SKY/WX    TMP DP  RH WIND       PRES   REMARKS
IRON MOUNTAIN  LGT RAIN  65  61  87 E8        29.80F
HOUGHTON       CLOUDY    61  59  93 E9        29.82S
COPPER HARBOR    N/A     65  59  81 S10G16    29.82F
$$

ABBREVIATIONS USED IN REMARKS
   TC - TEMPERATURE IN CELSIUS
  WCI - WIND CHILL INDEX
   HX - HEAT INDEX
  VSB - VISIBILITY





USA.gov is the U.S. government's official web portal to all federal, state and local government web resources and services.